[[{"header":{"parameterUnit":"m.s-1","parameterCategory":1,"la1":30.2991,"la2":30.254,"lo1":-89.0895,"lo2":-89.0444,"dy":0.0017,"dx":0.0017,"nx":28,"ny":28,"refTime":"2024-05-10T21:00:00:Z","depth":0,"parameterNumber":2,"parameterNumberName":"U-component_of_WINDS"},"data":[0,0,0,0,0,0,0,0,0,0,0,0,0,0,0,0,0,0,0,0,0,0,0,0,0,0,0,0,0,0,0,0,0,0,0,0,0,0,0,0,0,0,0,0,0,0,0,0,0,0,0,0,0,0,0,0,0,0,-2.2964,-2.2963,0,-2.2913,-2.2913,-2.2912,-2.2782,-2.2779,-2.2776,-2.2774,-2.2724,-2.2725,-2.2726,0,0,0,0,0,0,0,0,0,0,0,0,0,-2.295,-2.2951,-2.2964,-2.2963,-2.2963,-2.2913,-2.2913,-2.2912,-2.2782,-2.2779,-2.2776,-2.2773,-2.2724,-2.2725,-2.2727,0,0,0,0,0,0,0,0,0,0,0,0,0,-2.2933,-2.2951,-2.2964,-2.2892,-2.2885,-2.2913,-2.2913,-2.2912,-2.2783,-2.2779,-2.2775,-2.2771,-2.2723,-2.2725,-2.2727,-2.2821,0,0,-2.2732,-2.2733,0,0,0,0,0,0,0,0,-2.2934,-2.2934,-2.2903,-2.2897,-2.2889,-2.285,-2.2889,-2.2882,-2.2784,-2.2822,-2.2774,-2.2769,-2.2769,-2.2767,-2.2767,-2.2819,-2.2817,-2.2733,-2.2734,-2.2735,-2.2735,0,0,0,0,0,0,0,-2.2936,-2.2935,-2.2944,-2.2903,-2.2895,-2.2863,-2.2856,-2.2887,-2.282,-2.2818,-2.2809,-2.2804,-2.2765,-2.2765,-2.2765,-2.2816,-2.2733,-2.2734,-2.2735,-2.2736,-2.2941,-2.2945,0,0,0,0,0,0,-2.2947,-2.2937,-2.2945,-2.2942,-2.2902,-2.2866,-2.2858,-2.2867,-2.2819,-2.2808,-2.2808,-2.2799,-2.2764,-2.2763,-2.2762,-2.2868,-2.2735,-2.2736,-2.2737,-2.2937,-2.2942,-2.2947,0,0,0,0,0,0,-2.2947,-2.2949,-2.2948,-2.2937,-2.2934,-2.2871,-2.2881,-2.2868,-2.2868,-2.2811,-2.2798,-2.2821,-2.2761,-2.276,-2.2807,-2.2865,-2.2737,-2.2739,-2.2932,-2.2939,-2.2945,-2.3082,0,0,0,0,0,0,-2.2947,-2.295,-2.2985,-2.2939,-2.2936,-2.2993,-2.2885,-2.287,-2.2871,-2.2859,-2.282,-2.2809,-2.2757,-2.2805,-2.2809,-2.2865,-2.274,-2.2926,-2.2935,-2.2942,-2.3072,-2.3093,-2.311,0,0,0,0,0,-2.2947,-2.3027,-2.2987,-2.2989,-2.2978,-2.2997,-2.2995,-2.2933,-2.2877,-2.2911,-2.2874,-2.2811,-2.2858,-2.2811,-2.2814,-2.2872,-2.2922,-2.2932,-2.2942,-2.3064,-2.3089,-2.311,0,0,0,0,0,0,-2.3083,-2.3019,-2.2975,-2.3042,-2.3026,-2.2975,-2.3017,-2.2962,-2.2961,-2.295,-2.2873,-2.2865,-2.2923,-2.2902,-2.2851,-2.296,-2.288,-2.2891,-2.2971,-2.2994,-2.3013,-2.3016,-2.2742,0,0,0,0,0,-2.312,-2.314,-2.3084,-2.3148,-2.3142,-2.3082,-2.3087,-2.3041,-2.3021,-2.3014,-2.298,-2.2964,-2.2974,-2.2983,-2.299,-2.3069,-2.3058,-2.311,-2.3129,-2.3145,-2.3155,-2.3193,-2.3215,-2.2979,-2.2979,-2.2979,0,0,-2.3198,-2.3166,-2.3183,-2.3175,-2.3156,-2.3179,-2.3077,-2.3105,-2.3121,-2.3018,-2.306,-2.3035,-2.3012,-2.3075,-2.31,-2.3059,-2.3218,-2.3157,-2.317,-2.3171,-2.3205,-2.3228,-2.3247,-2.2985,-2.2984,-2.2983,0,0,-2.3351,-2.3329,-2.3379,-2.3363,-2.3336,-2.3295,-2.3307,-2.3264,-2.3243,-2.3284,-2.3207,-2.3225,-2.3246,-2.3232,-2.3227,-2.3374,-2.3314,-2.3378,-2.3477,-2.3515,-2.3533,-2.355,-2.36,-2.362,-2.3389,-2.3389,-2.3389,0,-2.3451,-2.3481,-2.3413,-2.3445,-2.3443,-2.335,-2.34,-2.3388,-2.3366,-2.3366,-2.332,-2.3343,-2.3321,-2.3378,-2.3414,-2.3414,-2.3425,-2.3382,-2.3536,-2.3552,-2.3566,-2.3613,-2.3633,-2.3397,-2.3396,-2.3395,-2.3394,0,-2.3605,-2.3627,-2.3671,-2.365,-2.3653,-2.3695,-2.3632,-2.3644,-2.3597,-2.3561,-2.3603,-2.3573,-2.3571,-2.3581,-2.3537,-2.3632,-2.3607,-2.355,-2.3468,-2.3597,-2.364,-2.3658,-2.3408,-2.3405,-2.3403,-2.3401,0,0,-2.3842,-2.3781,-2.3799,-2.3787,-2.375,-2.3766,-2.3803,-2.38,-2.3811,-2.3799,-2.3827,-2.3846,-2.3793,-2.3788,-2.3741,-2.3774,-2.389,-2.3712,-2.371,-2.3745,-2.3992,-2.4034,-2.4056,-2.3851,-2.3854,-2.3857,-2.3993,0,-2.3985,-2.4043,-2.3982,-2.4054,-2.4072,-2.3984,-2.4016,-2.3997,-2.3964,-2.3975,-2.3938,-2.3953,-2.3881,-2.3878,-2.3907,-2.387,-2.3938,-2.3859,-2.3876,-2.3877,-2.3883,-2.4079,-2.4124,-2.4254,-2.401,-2.4013,-2.4015,0,-2.4159,-2.4153,-2.4226,-2.4183,-2.4188,-2.4218,-2.421,-2.4222,-2.4198,-2.4172,-2.4166,-2.4108,-2.4141,-2.4062,-2.4105,-2.4053,-2.4056,-2.4039,-2.4042,-2.4041,-2.3953,-2.4081,-2.4294,-2.4314,-2.4041,-2.4039,-2.4037,0,-2.4323,-2.4333,-2.4377,-2.437,-2.4322,-2.4344,-2.4325,-2.4297,-2.4299,-2.4292,-2.4292,-2.4291,-2.4289,-2.4289,-2.4232,-2.418,-2.4282,-2.4199,-2.4261,-2.4262,-2.4285,-2.4285,-2.4501,-2.429,-2.429,-2.429,-2.4289,0,-2.4487,-2.4535,-2.445,-2.4477,-2.4527,-2.4457,-2.4509,-2.4481,-2.4456,-2.4476,-2.4401,-2.4421,-2.4345,-2.4358,-2.4314,-2.4356,-2.4356,-2.4335,-2.4323,-2.4341,-2.4344,-2.4341,-2.433,-2.4295,-2.4294,-2.4293,-2.4292,0,-2.4678,-2.4623,-2.4665,-2.4615,-2.4603,-2.4643,-2.46,-2.4623,-2.4584,-2.4611,-2.4613,-2.4553,-2.4564,-2.4507,-2.4508,-2.4478,-2.4541,-2.4514,-2.4549,-2.454,-2.4605,-2.4599,-2.4826,-2.4852,-2.4627,-2.4629,-2.4631,0,-2.4787,-2.4821,-2.4774,-2.4781,-2.4765,-2.4779,-2.478,-2.4712,-2.4716,-2.4691,-2.4717,-2.4721,-2.472,-2.4741,-2.4698,-2.4698,-2.4669,-2.4749,-2.4669,-2.4686,-2.4668,-2.4666,-2.4669,-2.4765,-2.4768,-2.477,-2.4772,0,-2.4984,-2.4954,-2.4958,-2.4953,-2.4955,-2.4948,-2.4935,-2.4946,-2.4872,-2.4881,-2.489,-2.489,-2.4889,-2.4894,-2.4885,-2.4865,-2.4807,-2.4798,-2.4812,-2.483,-2.4849,-2.4838,-2.4593,-2.4793,-2.4791,-2.4789,-2.4788,-2.4787,-2.5135,-2.5161,-2.5131,-2.5138,-2.5121,-2.511,-2.5129,-2.5092,-2.5099,-2.5092,-2.5052,-2.5069,-2.5043,-2.5024,-2.501,-2.5022,-2.4984,-2.5005,-2.501,-2.5016,-2.5026,-2.4848,-2.502,-2.502,-2.5019,-2.5018,-2.5018,0,-2.5327,-2.5303,-2.531,-2.5294,-2.5299,-2.5242,-2.5225,-2.5233,-2.5248,-2.5229,-2.523,-2.524,-2.5244,-2.52,-2.5199,-2.5216,-2.5189,-2.5218,-2.5215,-2.5211,-2.5061,-2.5048,-2.524,-2.524,-2.524,-2.524,-2.524,-2.524,-2.5427,-2.5467,-2.5434,-2.5464,-2.544,-2.5455,-2.545,-2.544,-2.5423,-2.5438,-2.544,-2.5411,-2.5382,-2.5377,-2.5378,-2.5365,-2.5368,-2.5406,-2.5384,-2.5244,-2.5222,-2.5202,-2.5189,-2.5407,-2.5407,-2.5532,-2.5533,-2.5534]},{"header":{"parameterUnit":"m.s-1","parameterCategory":1,"la1":30.2991,"la2":30.254,"lo1":-89.0895,"lo2":-89.0444,"dy":0.0017,"dx":0.0017,"nx":28,"ny":28,"refTime":"2024-05-10T21:00:00:Z","depth":0,"parameterNumber":3,"parameterNumberName":"V-component_of_WINDS"},"data":[0,0,0,0,0,0,0,0,0,0,0,0,0,0,0,0,0,0,0,0,0,0,0,0,0,0,0,0,0,0,0,0,0,0,0,0,0,0,0,0,0,0,0,0,0,0,0,0,0,0,0,0,0,0,0,0,0,0,-2.6276,-2.6277,0,-2.6353,-2.6354,-2.6355,-2.6335,-2.6333,-2.6331,-2.633,-2.6408,-2.6411,-2.6415,0,0,0,0,0,0,0,0,0,0,0,0,0,-2.6109,-2.6112,-2.6276,-2.6277,-2.6278,-2.6353,-2.6354,-2.6355,-2.6335,-2.6333,-2.6331,-2.6329,-2.6407,-2.6411,-2.6415,0,0,0,0,0,0,0,0,0,0,0,0,0,-2.6183,-2.6113,-2.6276,-2.6277,-2.6278,-2.6353,-2.6354,-2.6355,-2.6335,-2.6333,-2.6331,-2.6328,-2.6405,-2.641,-2.6416,-2.6494,0,0,-2.6432,-2.6434,0,0,0,0,0,0,0,0,-2.6179,-2.6189,-2.6276,-2.6277,-2.6278,-2.6332,-2.6323,-2.6402,-2.6336,-2.6313,-2.633,-2.6327,-2.6384,-2.6391,-2.6411,-2.6497,-2.6501,-2.6432,-2.6435,-2.6437,-2.6439,0,0,0,0,0,0,0,-2.6174,-2.6186,-2.6306,-2.6277,-2.6278,-2.6273,-2.6281,-2.6338,-2.6361,-2.6315,-2.6314,-2.6323,-2.6384,-2.6406,-2.6412,-2.6502,-2.6432,-2.6436,-2.644,-2.6442,-2.6654,-2.6657,0,0,0,0,0,0,-2.6168,-2.6182,-2.6304,-2.6309,-2.6222,-2.6278,-2.6287,-2.6317,-2.636,-2.6364,-2.6325,-2.6322,-2.6398,-2.6406,-2.6415,-2.6508,-2.6437,-2.6442,-2.6445,-2.6652,-2.6655,-2.6658,0,0,0,0,0,0,-2.6165,-2.6179,-2.6301,-2.6245,-2.626,-2.6283,-2.6317,-2.632,-2.6341,-2.6368,-2.6371,-2.6343,-2.6396,-2.6407,-2.6474,-2.651,-2.6445,-2.6449,-2.6649,-2.6653,-2.6656,-2.6695,0,0,0,0,0,0,-2.616,-2.6178,-2.6209,-2.6246,-2.6263,-2.6359,-2.6319,-2.6323,-2.635,-2.6346,-2.6385,-2.6389,-2.6395,-2.6466,-2.6479,-2.6516,-2.6453,-2.6646,-2.6651,-2.6655,-2.6691,-2.67,-2.6708,0,0,0,0,0,-2.6154,-2.6217,-2.621,-2.6225,-2.6302,-2.6361,-2.6371,-2.6377,-2.6353,-2.6383,-2.64,-2.6388,-2.6504,-2.6473,-2.6487,-2.6527,-2.6643,-2.6649,-2.6655,-2.6687,-2.6698,-2.6707,0,0,0,0,0,0,-2.6183,-2.6222,-2.6215,-2.6292,-2.6323,-2.6358,-2.6396,-2.6389,-2.6428,-2.6423,-2.6429,-2.6438,-2.6505,-2.6523,-2.6487,-2.6604,-2.657,-2.6579,-2.659,-2.6601,-2.6609,-2.6603,-2.6458,0,0,0,0,0,-2.6199,-2.6245,-2.6275,-2.634,-2.6356,-2.6374,-2.64,-2.6402,-2.6435,-2.6448,-2.647,-2.6502,-2.6545,-2.6574,-2.6616,-2.6693,-2.6701,-2.6727,-2.6736,-2.6742,-2.675,-2.679,-2.6802,-2.6676,-2.6676,-2.6676,0,0,-2.6231,-2.6257,-2.6286,-2.6346,-2.6371,-2.6417,-2.6385,-2.6436,-2.647,-2.6455,-2.6519,-2.6536,-2.6572,-2.6644,-2.6677,-2.6661,-2.6786,-2.675,-2.6755,-2.6759,-2.6797,-2.6809,-2.682,-2.668,-2.6679,-2.6679,0,0,-2.6313,-2.6338,-2.6394,-2.642,-2.6457,-2.6468,-2.6482,-2.6517,-2.6528,-2.6592,-2.6582,-2.6622,-2.6698,-2.6723,-2.6746,-2.6836,-2.6826,-2.685,-2.6894,-2.6933,-2.6943,-2.6952,-2.6983,-2.6994,-2.6857,-2.6857,-2.6857,0,-2.6348,-2.6418,-2.6424,-2.6475,-2.6501,-2.649,-2.6546,-2.657,-2.662,-2.6638,-2.6619,-2.6712,-2.6736,-2.6813,-2.6835,-2.6854,-2.6869,-2.6845,-2.6941,-2.695,-2.6959,-2.6988,-2.7,-2.686,-2.6859,-2.6859,-2.6859,0,-2.6459,-2.6507,-2.6548,-2.6596,-2.6626,-2.668,-2.6692,-2.6723,-2.6722,-2.6734,-2.6799,-2.6827,-2.6873,-2.6891,-2.6891,-2.6968,-2.6957,-2.694,-2.6906,-2.6973,-2.7001,-2.7012,-2.6863,-2.6863,-2.6862,-2.6861,0,0,-2.6562,-2.6611,-2.6626,-2.6647,-2.6687,-2.6725,-2.6777,-2.6822,-2.6848,-2.6882,-2.6925,-2.6988,-2.6973,-2.6999,-2.7001,-2.7036,-2.7104,-2.7014,-2.7015,-2.7029,-2.7189,-2.72,-2.7214,-2.7097,-2.7099,-2.7101,-2.7185,0,-2.6647,-2.6739,-2.6745,-2.6828,-2.6872,-2.6862,-2.6907,-2.6936,-2.6949,-2.6988,-2.7002,-2.7046,-2.7023,-2.7038,-2.7072,-2.7088,-2.7136,-2.7082,-2.7136,-2.7138,-2.7127,-2.7228,-2.7241,-2.7319,-2.7196,-2.7198,-2.7199,0,-2.6758,-2.6795,-2.6883,-2.6916,-2.6934,-2.6975,-2.7016,-2.7054,-2.7086,-2.7093,-2.7122,-2.7119,-2.7171,-2.7136,-2.7207,-2.7171,-2.7193,-2.7204,-2.7208,-2.7212,-2.7172,-2.7235,-2.7345,-2.7356,-2.7217,-2.7216,-2.7214,0,-2.6823,-2.6895,-2.6956,-2.6975,-2.7015,-2.7043,-2.7061,-2.7092,-2.7118,-2.7154,-2.7171,-2.7213,-2.7235,-2.7267,-2.7275,-2.7249,-2.7346,-2.7312,-2.7352,-2.7352,-2.7373,-2.7371,-2.7487,-2.7389,-2.7389,-2.7388,-2.7388,0,-2.6916,-2.697,-2.6986,-2.7024,-2.7083,-2.7089,-2.7147,-2.7163,-2.719,-2.7229,-2.7223,-2.726,-2.7269,-2.7308,-2.7314,-2.7372,-2.7382,-2.7389,-2.7389,-2.7389,-2.7388,-2.7403,-2.7397,-2.7392,-2.7391,-2.739,-2.739,0,-2.6999,-2.7012,-2.7078,-2.711,-2.7119,-2.7161,-2.7189,-2.7224,-2.7236,-2.7286,-2.7298,-2.7317,-2.7362,-2.7373,-2.7427,-2.7431,-2.7499,-2.7495,-2.7488,-2.7488,-2.7527,-2.7523,-2.7656,-2.7673,-2.7565,-2.7566,-2.7566,0,-2.7057,-2.7098,-2.7135,-2.7161,-2.718,-2.7223,-2.7249,-2.7256,-2.7284,-2.7323,-2.7354,-2.7398,-2.7434,-2.7507,-2.7525,-2.7566,-2.7562,-2.7606,-2.7568,-2.7566,-2.7561,-2.7558,-2.7562,-2.7613,-2.7614,-2.7615,-2.7616,0,-2.7159,-2.7163,-2.7202,-2.7243,-2.7275,-2.7308,-2.7339,-2.7361,-2.7372,-2.7403,-2.745,-2.7477,-2.7532,-2.7576,-2.7617,-2.7634,-2.7627,-2.7627,-2.7639,-2.7638,-2.7631,-2.7634,-2.7507,-2.7624,-2.7623,-2.7623,-2.7622,-2.7622,-2.7231,-2.7266,-2.7297,-2.734,-2.7364,-2.7393,-2.7428,-2.7443,-2.7482,-2.7527,-2.7529,-2.7579,-2.7608,-2.7663,-2.7683,-2.7721,-2.7708,-2.7724,-2.7728,-2.7732,-2.7735,-2.7626,-2.7729,-2.7728,-2.7728,-2.7728,-2.7728,0,-2.7331,-2.735,-2.739,-2.7433,-2.7467,-2.7457,-2.7491,-2.7519,-2.7563,-2.7592,-2.7627,-2.7679,-2.7722,-2.7742,-2.7784,-2.7811,-2.7808,-2.7821,-2.7819,-2.7823,-2.7745,-2.7731,-2.7822,-2.7822,-2.7822,-2.7822,-2.7822,-2.7822,-2.7387,-2.7446,-2.7454,-2.7524,-2.7542,-2.7591,-2.7611,-2.7637,-2.766,-2.7718,-2.7753,-2.7767,-2.7792,-2.7835,-2.7873,-2.7878,-2.7893,-2.7908,-2.7911,-2.7838,-2.7828,-2.7819,-2.7805,-2.7911,-2.7911,-2.7985,-2.7985,-2.7986]}]]